Ithaca, NY

3:51 PM EDT on March 27, 2017 (GMT -0400)
Tompkins County

Weather History for KITH - February, 2013

Change the Weather History Date:

Saturday, February 2, 2013

  Actual Average Record
Temperature  
Mean Temperature 14 °F -  
Max Temperature 19 °F 31 °F 60 °F (1989)
Min Temperature 10 °F 16 °F -25 °F (1961)
Degree Days  
Heating Degree Days 50    
Moisture  
Dew Point 7 °F    
Average Humidity 69    
Maximum Humidity 81    
Minimum Humidity 57    
Precipitation  
Precipitation 0.00 in - - ()
Sea Level Pressure  
Sea Level Pressure 30.12 in    
Wind  
Wind Speed 9 mph (SSW)    
Max Wind Speed 14 mph    
Max Gust Speed -    
Visibility 9 miles    
Events Snow    
Averages and records for this station are not official NWS values.
T = Trace of Precipitation, MM = Missing Value Source: NWS Daily Summary

Daily Weather History Graph

Daily Weather History Graph

Search for Another Location

Airport or City:

Trip Planner

Search our weather history database for the weather conditions in past years. The results will help you decide how hot, cold, wet, or windy it might be!

Date:

Astronomy

Feb. 02, 2013 Rise Set
Actual Time 7:18 AM EST 5:21 PM EST
Civil Twilight 6:48 AM EST 5:51 PM EST
Nautical Twilight 6:15 AM EST 6:24 PM EST
Astronomical Twilight 5:42 AM EST 6:57 PM EST
Moon No Moon Rise 10:17 AM EST (2/2)
Length of Visible Light 11h 02m
Length of Day
10h 02m
Waning Gibbous, 60% of the Moon is Illuminated
Feb 2
Waning Gibbous
Feb 3
Last Quarter
Feb 10
New
Feb 17
First Quarter
Feb 25
Full

Hourly Weather History & Observations

Time (EST) Temp. Windchill Dew Point Humidity Pressure Visibility Wind Dir Wind Speed Gust Speed Precip Events Conditions
12:40 AM 17.6 °F 8.2 °F 10.4 °F 73% 30.16 in 4.0 mi West 6.9 mph - 0.00 in Snow Light Snow
12:56 AM 17.1 °F 5.0 °F 11.1 °F 77% 30.21 in 10.0 mi West 10.4 mph - 0.00 in Snow Light Snow
1:34 AM 15.8 °F 3.4 °F 8.6 °F 73% 30.16 in 10.0 mi West 10.4 mph - 0.00 in Snow Light Snow
1:56 AM 16.2 °F 3.2 °F 8.1 °F 70% 30.22 in 10.0 mi WSW 11.5 mph - 0.00 in   Overcast
2:44 AM 15.8 °F 5.1 °F 6.8 °F 68% 30.16 in 10.0 mi SW 8.1 mph - N/A   Overcast
2:56 AM 15.1 °F 6.4 °F 7.2 °F 71% 30.22 in 10.0 mi WSW 5.8 mph - N/A   Overcast
3:14 AM 14.0 °F 2.9 °F 6.8 °F 73% 30.16 in 10.0 mi SW 8.1 mph - N/A   Overcast
3:56 AM 13.1 °F 0.9 °F 5.0 °F 70% 30.22 in 10.0 mi SW 9.2 mph - N/A   Overcast
4:56 AM 11.1 °F 3.1 °F 3.0 °F 70% 30.22 in 10.0 mi South 4.6 mph - N/A   Clear
5:56 AM 11.1 °F -1.6 °F 2.1 °F 67% 30.21 in 10.0 mi South 9.2 mph - N/A   Clear
6:22 AM 10.4 °F -2.4 °F 1.4 °F 67% 30.13 in 10.0 mi South 9.2 mph - N/A   Clear
6:56 AM 11.1 °F -2.4 °F 2.1 °F 67% 30.20 in 10.0 mi SSW 10.4 mph - N/A   Scattered Clouds
7:56 AM 11.1 °F -0.6 °F 2.1 °F 67% 30.21 in 10.0 mi SSW 8.1 mph - N/A   Mostly Cloudy
8:56 AM 13.1 °F 5.4 °F 2.1 °F 62% 30.20 in 10.0 mi SSW 4.6 mph - N/A   Mostly Cloudy
9:56 AM 14.0 °F 2.9 °F 3.0 °F 62% 30.17 in 10.0 mi SSW 8.1 mph - N/A   Mostly Cloudy
10:56 AM 15.1 °F 3.3 °F 3.0 °F 59% 30.15 in 10.0 mi SSW 9.2 mph - N/A   Mostly Cloudy
11:56 AM 16.2 °F 3.2 °F 5.0 °F 62% 30.13 in 10.0 mi South 11.5 mph - 0.00 in Snow Light Snow Showers
12:56 PM 16.2 °F 3.9 °F 6.1 °F 65% 30.10 in 7.0 mi SSW 10.4 mph - 0.00 in Snow Light Snow
1:56 PM 18.1 °F 5.6 °F 6.1 °F 59% 30.06 in 10.0 mi SSW 11.5 mph - 0.00 in Snow Light Snow
2:56 PM 19.0 °F 5.6 °F 6.1 °F 57% 30.05 in 10.0 mi SSW 13.8 mph - 0.00 in Snow Light Snow
3:56 PM 19.0 °F 7.5 °F 7.2 °F 60% 30.04 in 10.0 mi SW 10.4 mph - 0.00 in   Mostly Cloudy
4:12 PM 19.4 °F 6.6 °F 8.6 °F 63% 29.98 in 10.0 mi SSW 12.7 mph - N/A   Mostly Cloudy
4:56 PM 19.0 °F 6.8 °F 8.1 °F 62% 30.04 in 10.0 mi SW 11.5 mph - 0.00 in Snow Light Snow
5:56 PM 18.1 °F 11.3 °F 10.0 °F 71% 30.04 in 10.0 mi SSW 4.6 mph - 0.00 in Snow Light Snow
7:56 PM 18.1 °F 10.0 °F 13.1 °F 81% 30.05 in 6.0 mi South 5.8 mph - 0.00 in Snow Light Snow
8:56 PM 18.1 °F 10.0 °F 12.0 °F 77% 30.04 in 6.0 mi South 5.8 mph - 0.00 in Snow Light Snow
9:56 PM 17.1 °F 10.0 °F 12.0 °F 81% 30.04 in 7.0 mi SSE 4.6 mph - 0.00 in Snow Light Snow
10:56 PM 17.1 °F 8.7 °F 12.0 °F 81% 30.02 in 10.0 mi SSE 5.8 mph - 0.00 in Snow Light Snow
11:56 PM 17.1 °F 10.0 °F 12.0 °F 81% 30.01 in 7.0 mi South 4.6 mph - 0.00 in Snow Light Snow